KEWRBGKK

Guest
Details From KEWR - Newark Liberty Intl
To BGKK - Kulusuk
Flight Number -
Tags Generated
Created
Modified
Stats Distance 1,948 nm / 3,608 km
Max Altitude 0 ft / 0 m
Waypoints 4
Social Downloads 1
Likes 0
Share VATSIM

Download

Looking for another format? Having issues loading an existing format? Contact us
Advertisement - Login to hide

Notes

Generated

Route

KEWR ULAKY LOKVI BGKK

ID Type Via Altitude Latitude Longitude Leg Dist Tot Dist Heading (true) Name
O KEWR APT - 0 ft / 0 m 40.70281˚ -74.18071˚ - 0 nm - -
ULAKY FIX - 0 ft / 0 m 43.67622˚ -71.96897˚ 203 nm 203 nm 28° / 30° -
LOKVI FIX - 0 ft / 0 m 50.24286˚ -66.11310˚ 461 nm 665 nm 29° / 34° -
O BGKK APT - 0 ft / 0 m 65.57304˚ -37.13664˚ 1282 nm 1948 nm 33° / 58° -

Altitude Profile

Advertisement - Login to hide

Weather


0- 5 10 15 20 25 30 35+ Temperature / ° C

Clouds and Precipitation
Forecast for 2018-05-21 18:00 UTC. Updated 2 hours ago

Ground ~20,000 ft ~40,000 ft Winds

KEWR

Details ICAO KEWR (EWR)
Name Newark Liberty Intl
Region United States
Timezone America/New_York (UTC-4.0)
Stats Elevation 18 ft / 5 m (AMSL)
Location 40.693633° -74.168565°
Runways 3
Magnetic Variation 12.800° W

METAR

KEWR 211651Z 07004KT 10SM FEW050 BKN260 24/07 A3018 RMK AO2 SLP219 T02390067

Decode

TAF

TAF AMD KEWR 211543Z 2116/2218 06007KT P6SM SCT250 FM211700 VRB05KT P6SM FEW250 FM211800 15008KT P6SM FEW250 FM220100 18006KT P6SM FEW250 FM220400 VRB03KT P6SM FEW150 BKN250 FM221300 16006KT P6SM VCSH SCT030 OVC100 FM221600 14005KT 6SM -SHRA BR BKN030 OVC050

Decode

Departure Runways

ID Width Length Bearing (true) Bearing (mag) Surface Threshold Offset Overrun Length
04L 150 ft / 46 m 11,009 ft / 3,356 m 25.73° 38.53° Asphalt 2,543 ft / 775 m 600 ft / 183 m
04R 150 ft / 46 m 10,008 ft / 3,051 m 25.73° 38.53° Asphalt 1,191 ft / 363 m 299 ft / 91 m
11 150 ft / 46 m 6,785 ft / 2,068 m 95.01° 107.81° Asphalt 0 ft / 0 m 299 ft / 91 m
22L 150 ft / 46 m 10,008 ft / 3,051 m 205.74° 218.54° Asphalt 1,795 ft / 547 m 801 ft / 244 m
22R 150 ft / 46 m 11,009 ft / 3,356 m 205.74° 218.54° Asphalt 1,424 ft / 434 m 699 ft / 213 m
29 150 ft / 46 m 6,785 ft / 2,068 m 275.02° 287.82° Asphalt 299 ft / 91 m 98 ft / 30 m

BGKK

Details ICAO BGKK
Name Kulusuk
Region Greenland
Timezone America/Godthab (UTC-2.0)
Stats Elevation 114 ft / 35 m (AMSL)
Location 65.573608° -37.123608°
Runways 1
Magnetic Variation 22.177° W

METAR

BGKK 211650Z AUTO 07019KT 9999NDV -RASN OVC011/// 01/M01 Q1005

Decode

TAF

Not found

Destination Runways

ID Width Length Bearing (true) Bearing (mag) Surface Threshold Offset Overrun Length
11 98 ft / 30 m 3,956 ft / 1,206 m 83.99° 106.17° Gravel 0 ft / 0 m 0 ft / 0 m
29 98 ft / 30 m 3,956 ft / 1,206 m 264.01° 286.19° Gravel 0 ft / 0 m 0 ft / 0 m